Location: Hoyos del Collado
(40.3594°N, 5.2003°W)
Time: 16:20:44
(UTC+00:00)

CZ-4B R/B - Visible Passes

Search period start: 12 July 2024 00:00
Search period end: 22 July 2024 00:00
Orbit: 463 x 614 km, 97.9° (Epoch: 11 July)

Date Brightness Start Highest point End Pass type
(mag) Time Alt. Az. Time Alt. Az. Time Alt. Az.
12 Jul 4.9 20:24:05 10° SSW 20:27:42 29° W 20:31:14 10° NW visible
13 Jul 4.5 20:16:05 10° SSW 20:19:54 35° W 20:23:35 10° NNW visible
20 Jul 5.8 20:58:01 10° WSW 20:59:37 12° W 21:01:11 10° WNW visible
21 Jul 5.6 20:49:21 10° SW 20:51:38 15° W 20:53:54 10° WNW visible
